Location: Recife
(8.0585°S, 34.8848°W)
Time: 12:31:02
(UTC-03:00)

Transit 4A - Pass Details

Date: 17 April 2026
Orbit: 861 x 980 km, 66.8° (Epoch: 12 May)

Event Time Altitude Azimuth Distance (km) Brightness Sun altitude
Rises 00:49:33 0° 329° (NNW) 3,650 - -67.6°
Reaches altitude 10° 00:52:12 10° 324° (NW) 2,698 - -66.9°
Maximum altitude 00:58:17 51° 250° (WSW) 1,181 - -65.4°
Drops below altitude 10° 01:04:16 10° 175° (S) 2,644 - -64.0°
Sets 01:06:51 0° 169° (S) 3,572 - -63.3°
